Location: Ash Swamp
(41.5170°N, 74.6157°W)
Time: 02:02:43
(UTC+00:00)

ALOS 2 - Pass Details

Date: 14 July 2020
Orbit: 630 x 632 km, 97.9° (Epoch: 14 August)

Event Time Altitude Azimuth Distance (km) Brightness Sun altitude
Exits shadow 04:00:03 42° 66° (ENE) 906 3.4 -25.1°
Drops below altitude 10° 04:04:03 10° 1° (N) 2,022 6.1 -25.3°
Sets 04:06:20 0° 355° (N) 2,934 7.3 -25.5°
